World > North America > United States > Mississippi

Hourly Midway, MS Regional Weather

Feedback E-mail the Weather

Quick WX

Midway, MS Weather Maps

°F °C°F °C
Midway Weather Map
UTC Time: 7/6/2022, 01:59
Your Time:

Midway, MS Regional Weather

Expires:202207060200;;756549
ASUS44 KJAN 060110
RWRMS 

MISSISSIPPI HOURLY WEATHER ROUNDUP
NATIONAL WEATHER SERVICE JACKSON MS
800 PM CDT TUE JUL 05 2022

NOTE: "FAIR: INDICATES FEW OR NO CLOUDS BELOW 12,000 FEET WITH NO
SIGNIFICANT WEATHER AND/OR OBSTRUCTIONS TO VISIBILITY.


MSZ003>006-009-014>017-022>024-029>033-037>039-060200-
NORTHEAST MISSISSIPPI
  
CITY           SKY/WX    TMP DP  RH WIND       PRES   REMARKS
ABERDEEN       MOCLDY    86  79  79 S10       30.00R HX  99           
COLUMBUS AFB   CLOUDY    85  74  69 CALM      29.95R HX  91           
CORINTH        CLOUDY    91  73  55 SE18      29.97R THUNDER HX 100   
GOLDN TRIANGLE CLOUDY    80  77  90 SW3       29.99S                  
TUPELO         CLOUDY    94  73  50 VRB7      29.96R HX 103           
$$


SKY/WX - Weather  TMP - Temperature  DP - Dew Point  RH - Humidity
WIND - Wind Direction/Speed PRES - Barometric Pressure VSB - Visibility
WCI - Wind Chill Index E13G22 Wind - East Wind 13 mph/Gusts of 22 mph

Trending Headlines

Midway Radar Loop



Midway Quick Facts


National Two Day Weather Forecast


E-mail the Midway Weather Forecast

Voice your opinion or tell us about page issues...